Le nostre stazioni meteo in Italia

Pubblicità
Il mio iltempo24.it
Fyvie castle, Gran Bretagna (99010): Temperatura & dewpoint: 16.10.2018 07:00:00 - 22.10.2018 07:00:00 (BST)Fyvie castle, Gran Bretagna (99010): precipitazioni: 16.10.2018 07:00:00 - 22.10.2018 07:00:00 (BST)
Data & Tempo tt [°C] td [°C] rr [mm]
22.10.2018 07:00:00 4,4 2,1 0,0
22.10.2018 06:00:00 5,6 2,3 0,0
22.10.2018 05:00:00 5,6 1,6 0,0
22.10.2018 04:00:00 6,3 1,4 0,0
22.10.2018 03:00:00 5,0 1,0 0,0
22.10.2018 02:00:00 4,9 1,1 0,0
22.10.2018 01:00:00 5,6 1,4 0,0
22.10.2018 00:00:00 4,2 0,8 0,0
21.10.2018 23:00:00 6,1 0,9 0,0
21.10.2018 22:00:00 7,0 2,4 0,0
21.10.2018 21:00:00 7,4 2,5 0,0
21.10.2018 20:00:00 7,0 3,0 0,0
21.10.2018 19:00:00 7,8 1,9 0,0
21.10.2018 18:00:00 9,3 4,0 0,0
21.10.2018 17:00:00 9,6 5,6 0,2
21.10.2018 16:00:00 11,9 5,6 0,0
21.10.2018 15:00:00 12,3 6,6 0,0
21.10.2018 14:00:00 11,1 7,2 0,0
21.10.2018 13:00:00 10,6 8,4 0,0
21.10.2018 12:00:00 10,2 8,3 0,2
21.10.2018 11:00:00 10,1 9,6 0,0
21.10.2018 10:00:00 9,7 9,3 1,2
21.10.2018 09:00:00 9,8 9,3 1,0
21.10.2018 08:00:00 10,5 9,6 1,2
21.10.2018 07:00:00 12,4 10,9 0,0
21.10.2018 06:00:00 14,0 12,0 0,0
21.10.2018 05:00:00 14,3 12,1 0,0
21.10.2018 04:00:00 14,5 12,1 0,0
21.10.2018 03:00:00 14,8 12,1 0,0
21.10.2018 02:00:00 14,6 11,9 0,0
21.10.2018 01:00:00 15,9 11,8 0,0
21.10.2018 00:00:00 16,2 12,3 0,0
20.10.2018 23:00:00 11,9 11,9 0,0
20.10.2018 22:00:00 8,7 8,4 0,0
20.10.2018 21:00:00 9,7 9,2 0,0
20.10.2018 20:00:00 10,4 9,1 0,0
20.10.2018 19:00:00 13,5 11,0 0,0
20.10.2018 18:00:00 14,7 11,4 0,0
20.10.2018 17:00:00 16,6 11,5 0,0
20.10.2018 16:00:00 18,2 11,8 0,0
20.10.2018 15:00:00 19,4 12,2 0,0
20.10.2018 14:00:00 19,1 12,7 0,0
20.10.2018 13:00:00 17,5 11,3 0,0
20.10.2018 12:00:00 14,6 11,2 0,0
20.10.2018 11:00:00 11,1 9,3 0,0
20.10.2018 10:00:00 9,9 8,6 0,0
20.10.2018 09:00:00 8,4 8,2 0,0
20.10.2018 08:00:00 5,9 5,9 0,0
20.10.2018 07:00:00 2,2 2,2 0,0
20.10.2018 06:00:00 1,1 1,0 0,0
20.10.2018 05:00:00 0,4 0,0 0,0
20.10.2018 04:00:00 1,4 0,9 0,0
20.10.2018 03:00:00 3,0 2,3 0,0
20.10.2018 02:00:00 4,3 3,9 0,0
20.10.2018 01:00:00 4,6 4,4 0,0
20.10.2018 00:00:00 4,8 4,3 0,0
19.10.2018 23:00:00 4,8 4,3 0,0
19.10.2018 22:00:00 4,9 4,1 0,0
19.10.2018 21:00:00 5,6 4,5 0,0
19.10.2018 20:00:00 5,8 3,7 0,0
19.10.2018 19:00:00 9,4 4,6 0,0
19.10.2018 18:00:00 11,1 5,1 0,0
19.10.2018 17:00:00 11,4 4,5 0,0
19.10.2018 16:00:00 12,8 5,6 0,0
19.10.2018 15:00:00 12,5 8,9 0,0
19.10.2018 14:00:00 14,4 6,4 0,0
19.10.2018 13:00:00 12,9 6,5 0,0
19.10.2018 12:00:00 11,3 6,3 0,0
19.10.2018 11:00:00 9,0 5,4 0,0
19.10.2018 10:00:00 8,7 5,0 0,0
19.10.2018 09:00:00 7,3 4,9 0,0
19.10.2018 08:00:00 7,3 4,5 0,0
19.10.2018 07:00:00 7,0 4,6 0,0
19.10.2018 06:00:00 7,4 4,7 0,0
19.10.2018 05:00:00 8,0 4,6 0,0
19.10.2018 04:00:00 8,3 4,5 0,0
19.10.2018 03:00:00 7,9 4,7 0,0
19.10.2018 02:00:00 6,8 4,9 0,0
19.10.2018 01:00:00 5,0 4,9 0,0
19.10.2018 00:00:00 3,6 3,4 0,0
18.10.2018 23:00:00 3,0 2,6 0,0
18.10.2018 22:00:00 4,0 3,3 0,0
18.10.2018 21:00:00 4,4 4,0 0,0
18.10.2018 20:00:00 4,1 3,1 0,0
18.10.2018 19:00:00 5,7 4,4 0,0
18.10.2018 18:00:00 7,5 4,6 0,0
18.10.2018 17:00:00 9,3 4,6 0,0
18.10.2018 16:00:00 10,1 3,5 0,0
18.10.2018 15:00:00 10,3 3,7 0,0
18.10.2018 14:00:00 10,4 4,1 0,0
18.10.2018 13:00:00 10,5 4,8 0,0
18.10.2018 12:00:00 7,8 4,0 0,0
18.10.2018 11:00:00 7,7 4,9 0,0
18.10.2018 10:00:00 3,5 3,5 0,0
18.10.2018 09:00:00 0,6 0,6 0,0
18.10.2018 08:00:00 -0,1 -0,2 0,0
18.10.2018 07:00:00 -0,3 -0,4 0,0
18.10.2018 06:00:00 0,0 -0,3 0,0
18.10.2018 05:00:00 0,2 -0,1 0,0
18.10.2018 04:00:00 1,1 0,9 0,0
18.10.2018 03:00:00 1,6 1,4 0,0
18.10.2018 02:00:00 1,8 1,5 0,0
18.10.2018 01:00:00 2,1 1,8 0,0
18.10.2018 00:00:00 2,7 2,5 0,0
17.10.2018 23:00:00 2,5 2,3 0,0
17.10.2018 22:00:00 2,6 2,2 0,0
17.10.2018 21:00:00 3,2 2,4 0,0
17.10.2018 20:00:00 4,3 2,9 0,0
17.10.2018 19:00:00 6,8 3,1 0,0
17.10.2018 18:00:00 9,7 4,2 0,0
17.10.2018 17:00:00 11,4 3,9 0,0
17.10.2018 16:00:00 13,2 3,1 0,0
17.10.2018 15:00:00 - - 0,0
17.10.2018 14:00:00 - - 0,0
17.10.2018 13:00:00 - - 0,0
17.10.2018 12:00:00 - - 0,0
17.10.2018 11:00:00 - - 0,0
17.10.2018 10:00:00 6,2 6,1 0,0
17.10.2018 09:00:00 4,1 3,7 0,2
17.10.2018 08:00:00 4,1 3,4 0,0
17.10.2018 07:00:00 5,5 4,1 0,0
17.10.2018 06:00:00 7,2 5,4 0,0
17.10.2018 05:00:00 7,8 7,5 0,0
17.10.2018 04:00:00 4,6 4,0 0,0
17.10.2018 03:00:00 5,9 4,9 0,0
17.10.2018 02:00:00 8,3 7,5 0,0
17.10.2018 01:00:00 8,1 6,7 0,0
17.10.2018 00:00:00 8,7 7,7 0,0
16.10.2018 23:00:00 8,4 7,1 0,0
16.10.2018 22:00:00 9,5 8,1 0,0
16.10.2018 21:00:00 9,7 7,4 0,0
16.10.2018 20:00:00 9,7 7,9 0,0
16.10.2018 19:00:00 11,6 8,7 0,0
16.10.2018 18:00:00 12,5 8,9 0,0
16.10.2018 17:00:00 13,2 9,0 0,0
16.10.2018 16:00:00 14,3 8,6 0,0
16.10.2018 15:00:00 13,1 7,1 0,0
16.10.2018 14:00:00 14,2 7,6 0,0
16.10.2018 13:00:00 12,1 7,6 0,0
16.10.2018 12:00:00 11,4 8,4 0,0
16.10.2018 11:00:00 10,7 8,4 0,0
16.10.2018 10:00:00 10,2 8,1 0,0
16.10.2018 09:00:00 10,0 7,7 0,0
16.10.2018 08:00:00 9,2 7,2 0,0
16.10.2018 07:00:00 9,1 7,1 0,0

tt = Temperatura
td = dewpoint
rr = precipitazioni

Stazioni seguenti

WeatherPro
AMSI
MeteoEarth